Weather History for Rawlins, WY

Change the Weather History Date:

Friday, July 12, 2013

  Actual Average Record
Temperature  
Mean Temperature 70 °F 67 °F  
Max Temperature 82 °F 84 °F 98 °F (1954)
Min Temperature 57 °F 50 °F 40 °F (1983)
Degree Days  
Heating Degree Days 0 1  
Month to date heating degree days 0 19  
Since 1 June heating degree days 101 209  
Since 1 July heating degree days 0 19  
Cooling Degree Days 5 3  
Month to date cooling degree days 55 31  
Year to date cooling degree days 103 50  
Since 1 June cooling degree days 102 50  
Growing Degree Days 19 (Base 50)    
Moisture  
Dew Point 50 °F    
Average Humidity 57    
Maximum Humidity 86    
Minimum Humidity 28    
Precipitation  
Precipitation 0.07 in 0.02 in 1.42 in (1981)
Month to date precipitation 0.48 0.28  
Year to date precipitation 2.58 5.23  
Sea Level Pressure  
Sea Level Pressure 29.88 in    
Wind  
Wind Speed 10 mph (WSW)    
Max Wind Speed 26 mph    
Max Gust Speed 35 mph    
Visibility 10 miles    
Events Rain , Thunderstorm    
T = Trace of Precipitation, MM = Missing Value Source: NWS Daily Summary

Daily Weather History Graph

Daily Weather History Graph

Search for Another Location

Airport:

Trip Planner

Search our weather history database for the weather conditions in past years. The results will help you decide how hot, cold, wet, or windy it might be!

Date:

Astronomy

Jul. 12, 2013 Rise Set
Actual Time 5:44 AM MDT 8:43 PM MDT
Civil Twilight 5:11 AM MDT 9:16 PM MDT
Nautical Twilight 4:29 AM MDT 9:59 PM MDT
Astronomical Twilight 3:39 AM MDT 10:48 PM MDT
Moon 10:09 AM MDT (7/12) 10:50 PM MDT (7/12)
Length of Visible Light 16h 05m
Length of Day
14h 58m
Waxing Crescent, 18% of the Moon is Illuminated
Jul 12
Waxing Crescent
Jul 15
First Quarter
Jul 22
Full
Jul 29
Last Quarter
Aug 6
New

Hourly Weather History & Observations

Time (MDT) Temp. Dew Point Humidity Pressure Visibility Wind Dir Wind Speed Gust Speed Precip Events Conditions
12:53 AM 70.0 °F 46.0 °F 42% 29.81 in 10.0 mi SW 25.3 mph 32.2 mph N/A   Clear
1:53 AM 64.0 °F 54.0 °F 70% 29.84 in 10.0 mi SW 17.3 mph - 0.00 in Rain Light Rain
2:53 AM 60.1 °F 55.0 °F 83% 29.83 in 7.0 mi SW 6.9 mph - 0.06 in Rain Light Rain
3:53 AM 57.9 °F 55.0 °F 90% 29.82 in 10.0 mi Calm Calm - 0.01 in   Clear
4:53 AM 57.9 °F 53.1 °F 84% 29.81 in 10.0 mi SW 5.8 mph - N/A   Clear
5:53 AM 57.9 °F 53.1 °F 84% 29.83 in 10.0 mi West 6.9 mph - N/A   Clear
6:53 AM 59.0 °F 54.0 °F 83% 29.85 in 10.0 mi WSW 6.9 mph - N/A   Clear
7:53 AM 63.0 °F 55.0 °F 75% 29.86 in 10.0 mi WSW 8.1 mph - N/A   Partly Cloudy
8:53 AM 69.1 °F 55.0 °F 61% 29.86 in 10.0 mi WSW 12.7 mph - N/A   Partly Cloudy
9:53 AM 69.1 °F 54.0 °F 58% 29.86 in 10.0 mi WSW 11.5 mph - 0.00 in   Mostly Cloudy
10:53 AM 73.0 °F 53.1 °F 49% 29.86 in 10.0 mi SW 18.4 mph 23.0 mph N/A   Clear
11:53 AM 73.9 °F 51.1 °F 45% 29.86 in 10.0 mi WSW 12.7 mph 19.6 mph N/A   Scattered Clouds
12:53 PM 75.9 °F 48.9 °F 38% 29.86 in 10.0 mi WSW 20.7 mph 28.8 mph N/A   Clear
1:53 PM 75.0 °F 48.9 °F 40% 29.87 in 10.0 mi WSW 19.6 mph 27.6 mph N/A   Partly Cloudy
2:14 PM 73.4 °F 46.4 °F 38% 30.18 in 10.0 mi West 13.8 mph - N/A Thunderstorm Scattered Clouds
2:39 PM 78.8 °F 48.2 °F 34% 30.17 in 10.0 mi WSW 12.7 mph 24.2 mph N/A   Scattered Clouds
2:53 PM 78.1 °F 46.9 °F 33% 29.86 in 10.0 mi WSW 10.4 mph 25.3 mph N/A   Partly Cloudy
3:53 PM 79.0 °F 46.9 °F 32% 29.86 in 10.0 mi WSW 13.8 mph 21.9 mph N/A   Partly Cloudy
4:53 PM 81.0 °F 45.0 °F 28% 29.84 in 10.0 mi West 17.3 mph 26.5 mph N/A   Partly Cloudy
5:53 PM 75.9 °F 46.0 °F 35% 29.87 in 10.0 mi West 12.7 mph - N/A   Overcast
6:53 PM 75.0 °F 45.0 °F 34% 29.88 in 10.0 mi WSW 12.7 mph - N/A   Mostly Cloudy
7:53 PM 73.9 °F 45.0 °F 35% 29.86 in 10.0 mi West 12.7 mph - N/A   Scattered Clouds
8:53 PM 70.0 °F 46.0 °F 42% 29.87 in 10.0 mi WSW 9.2 mph - N/A   Clear
9:53 PM 64.0 °F 46.0 °F 52% 29.91 in 10.0 mi SSW 5.8 mph - N/A   Clear
10:53 PM 64.0 °F 50.0 °F 60% 29.91 in 10.0 mi WSW 5.8 mph - N/A   Clear
11:53 PM 62.1 °F 50.0 °F 65% 29.91 in 10.0 mi ENE 3.5 mph - N/A   Partly Cloudy